TimeEST,TemperatureF,Dew PointF,Humidity,Sea Level PressureIn,VisibilityMPH,Wind Direction,Wind SpeedMPH,Gust SpeedMPH,PrecipitationIn,Events,Conditions,WindDirDegrees,DateUTC
12:15 AM,33.8,30.2,87,29.94,10.0,SW,9.2,-,N/A,,Overcast,220,2013-02-23 05:15:00
12:35 AM,33.8,30.2,87,29.94,10.0,WSW,9.2,-,N/A,,Overcast,240,2013-02-23 05:35:00
12:55 AM,32.0,30.2,93,29.95,10.0,West,11.5,-,N/A,,Overcast,280,2013-02-23 05:55:00
1:15 AM,32.0,32.0,100,29.95,10.0,WNW,8.1,-,N/A,,Overcast,290,2013-02-23 06:15:00
1:35 AM,32.0,32.0,100,29.94,10.0,WNW,8.1,-,N/A,,Overcast,290,2013-02-23 06:35:00
1:55 AM,32.0,32.0,100,29.95,7.0,West,5.8,-,N/A,,Overcast,280,2013-02-23 06:55:00
2:15 AM,32.0,32.0,100,29.94,7.0,WNW,5.8,-,N/A,,Overcast,290,2013-02-23 07:15:00
2:35 AM,32.0,32.0,100,29.94,7.0,WNW,5.8,-,N/A,,Overcast,290,2013-02-23 07:35:00
2:55 AM,32.0,32.0,100,29.94,7.0,West,5.8,-,N/A,,Overcast,280,2013-02-23 07:55:00
3:15 AM,32.0,30.2,93,29.94,7.0,WNW,10.4,-,N/A,,Overcast,290,2013-02-23 08:15:00
3:35 AM,32.0,30.2,93,29.94,7.0,West,9.2,-,N/A,,Overcast,280,2013-02-23 08:35:00
3:55 AM,32.0,30.2,93,29.93,7.0,West,10.4,-,N/A,,Overcast,270,2013-02-23 08:55:00
4:15 AM,32.0,30.2,93,29.93,7.0,West,9.2,-,N/A,,Overcast,270,2013-02-23 09:15:00
4:35 AM,32.0,30.2,93,29.93,7.0,West,9.2,-,N/A,,Overcast,270,2013-02-23 09:35:00
4:55 AM,32.0,28.4,87,29.94,7.0,West,6.9,-,N/A,,Overcast,270,2013-02-23 09:55:00
5:15 AM,32.0,28.4,87,29.94,7.0,West,8.1,-,N/A,,Overcast,270,2013-02-23 10:15:00
5:35 AM,32.0,28.4,87,29.94,10.0,West,8.1,-,N/A,,Overcast,280,2013-02-23 10:35:00
5:55 AM,30.2,28.4,93,29.94,10.0,West,11.5,-,N/A,,Overcast,270,2013-02-23 10:55:00
6:15 AM,30.2,26.6,86,29.95,10.0,West,10.4,-,N/A,,Overcast,280,2013-02-23 11:15:00
6:35 AM,30.2,26.6,86,29.95,10.0,WSW,11.5,17.3,N/A,,Overcast,250,2013-02-23 11:35:00
6:55 AM,30.2,24.8,80,29.96,10.0,WSW,10.4,-,N/A,,Overcast,250,2013-02-23 11:55:00
7:15 AM,28.4,23.0,80,29.96,10.0,West,11.5,-,N/A,,Overcast,270,2013-02-23 12:15:00
7:35 AM,28.4,23.0,80,29.96,10.0,WSW,10.4,-,N/A,,Overcast,250,2013-02-23 12:35:00
7:55 AM,28.4,23.0,80,29.97,10.0,WSW,10.4,-,N/A,,Overcast,250,2013-02-23 12:55:00
8:15 AM,28.4,23.0,80,29.97,10.0,WSW,10.4,-,N/A,,Overcast,250,2013-02-23 13:15:00
8:35 AM,28.4,23.0,80,29.97,10.0,WNW,9.2,-,N/A,,Overcast,290,2013-02-23 13:35:00
8:55 AM,28.4,23.0,80,29.97,10.0,West,9.2,-,N/A,,Overcast,260,2013-02-23 13:55:00
9:15 AM,28.4,24.8,86,29.97,10.0,WNW,11.5,-,N/A,,Mostly Cloudy,290,2013-02-23 14:15:00
9:35 AM,28.4,23.0,80,29.96,10.0,West,8.1,-,N/A,,Mostly Cloudy,270,2013-02-23 14:35:00
9:55 AM,28.4,23.0,80,29.97,10.0,West,11.5,-,N/A,,Mostly Cloudy,270,2013-02-23 14:55:00
10:15 AM,30.2,24.8,80,29.96,10.0,West,6.9,-,N/A,,Overcast,270,2013-02-23 15:15:00
10:35 AM,28.4,23.0,80,29.95,10.0,West,6.9,-,N/A,,Scattered Clouds,280,2013-02-23 15:35:00
10:55 AM,30.2,23.0,75,29.95,10.0,West,8.1,-,N/A,,Scattered Clouds,260,2013-02-23 15:55:00
11:15 AM,30.2,23.0,75,29.96,10.0,West,10.4,-,N/A,,Scattered Clouds,270,2013-02-23 16:15:00
11:35 AM,30.2,23.0,75,29.95,10.0,West,8.1,-,N/A,,Mostly Cloudy,280,2013-02-23 16:35:00
11:55 AM,30.2,23.0,75,29.95,10.0,West,6.9,-,N/A,,Mostly Cloudy,280,2013-02-23 16:55:00
12:15 PM,32.0,24.8,75,29.95,10.0,West,9.2,-,N/A,,Mostly Cloudy,270,2013-02-23 17:15:00
12:35 PM,32.0,26.6,80,29.94,10.0,West,9.2,-,N/A,,Mostly Cloudy,260,2013-02-23 17:35:00
12:55 PM,32.0,26.6,80,29.94,10.0,West,9.2,-,N/A,,Scattered Clouds,270,2013-02-23 17:55:00
1:15 PM,32.0,26.6,80,29.94,10.0,West,11.5,-,N/A,,Scattered Clouds,270,2013-02-23 18:15:00
1:35 PM,33.8,26.6,75,29.93,10.0,West,10.4,-,N/A,,Mostly Cloudy,270,2013-02-23 18:35:00
1:55 PM,33.8,26.6,75,29.91,10.0,West,8.1,-,N/A,,Scattered Clouds,280,2013-02-23 18:55:00
2:15 PM,33.8,26.6,75,29.90,10.0,West,10.4,-,N/A,,Scattered Clouds,270,2013-02-23 19:15:00
2:35 PM,33.8,26.6,75,29.90,10.0,West,11.5,16.1,N/A,,Scattered Clouds,260,2013-02-23 19:35:00
2:55 PM,35.6,26.6,70,29.90,10.0,West,10.4,-,N/A,,Scattered Clouds,270,2013-02-23 19:55:00
3:15 PM,35.6,26.6,70,29.89,10.0,West,9.2,-,N/A,,Scattered Clouds,260,2013-02-23 20:15:00
3:35 PM,35.6,26.6,70,29.90,10.0,West,10.4,-,N/A,,Mostly Cloudy,280,2013-02-23 20:35:00
3:55 PM,35.6,26.6,70,29.91,10.0,West,11.5,-,N/A,,Mostly Cloudy,270,2013-02-23 20:55:00
4:15 PM,35.6,26.6,70,29.91,10.0,West,12.7,17.3,N/A,,Scattered Clouds,270,2013-02-23 21:15:00
4:35 PM,33.8,26.6,75,29.90,10.0,West,11.5,-,N/A,,Clear,270,2013-02-23 21:35:00
4:55 PM,33.8,26.6,75,29.90,10.0,West,9.2,-,N/A,,Scattered Clouds,270,2013-02-23 21:55:00
5:15 PM,33.8,26.6,75,29.90,10.0,West,9.2,-,N/A,,Clear,270,2013-02-23 22:15:00
5:35 PM,33.8,26.6,75,29.90,10.0,West,8.1,-,N/A,,Scattered Clouds,280,2013-02-23 22:35:00
5:55 PM,32.0,26.6,80,29.90,10.0,West,9.2,-,N/A,,Clear,270,2013-02-23 22:55:00
6:15 PM,32.0,26.6,80,29.90,10.0,WNW,4.6,-,N/A,,Clear,290,2013-02-23 23:15:00
6:35 PM,32.0,26.6,80,29.91,10.0,WNW,5.8,-,N/A,,Clear,300,2013-02-23 23:35:00
6:55 PM,32.0,28.4,87,29.92,10.0,NW,5.8,-,N/A,,Clear,320,2013-02-23 23:55:00
7:15 PM,32.0,26.6,80,29.92,10.0,NW,4.6,-,N/A,,Clear,320,2013-02-24 00:15:00
7:55 PM,30.2,26.6,86,29.93,10.0,NNW,6.9,-,N/A,,Clear,330,2013-02-24 00:55:00
8:15 PM,30.2,26.6,86,29.93,10.0,NNW,8.1,-,N/A,,Clear,330,2013-02-24 01:15:00
8:35 PM,30.2,26.6,86,29.94,10.0,NW,3.5,-,N/A,,Clear,320,2013-02-24 01:35:00
8:55 PM,30.2,26.6,86,29.93,10.0,NW,5.8,-,N/A,,Scattered Clouds,320,2013-02-24 01:55:00
9:15 PM,30.2,26.6,86,29.93,10.0,NW,5.8,-,N/A,,Clear,320,2013-02-24 02:15:00
9:35 PM,30.2,26.6,86,29.93,10.0,NW,5.8,-,N/A,,Clear,320,2013-02-24 02:35:00
9:55 PM,30.2,26.6,86,29.93,10.0,NW,5.8,-,N/A,,Clear,320,2013-02-24 02:55:00
10:15 PM,30.2,26.6,86,29.92,10.0,NW,9.2,-,N/A,,Clear,310,2013-02-24 03:15:00
10:35 PM,28.4,26.6,93,29.93,10.0,NW,10.4,-,N/A,,Clear,310,2013-02-24 03:35:00
10:55 PM,28.4,24.8,86,29.93,10.0,NW,11.5,16.1,N/A,,Mostly Cloudy,320,2013-02-24 03:55:00
11:15 PM,28.4,24.8,86,29.93,10.0,NW,11.5,-,N/A,,Overcast,310,2013-02-24 04:15:00
11:35 PM,28.4,24.8,86,29.92,10.0,WNW,6.9,-,N/A,,Overcast,300,2013-02-24 04:35:00
11:55 PM,28.4,24.8,86,29.92,10.0,WNW,6.9,-,N/A,,Overcast,300,2013-02-24 04:55:00